Time,TemperatureF,DewpointF,PressureIn,WindDirection,WindDirectionDegrees,WindSpeedMPH,WindSpeedGustMPH,Humidity,HourlyPrecipIn,Conditions,Clouds,dailyrainin,SoftwareType,DateUTC
2013-08-13 00:01:00,65.0,63.8,29.85,WNW,284,0.0,0.0,96,0.00,,,0.00,Wunderground v.1.15,2013-08-13 04:01:00,
2013-08-13 00:02:00,64.9,63.7,29.86,WNW,284,0.0,0.0,96,0.00,,,0.00,Wunderground v.1.15,2013-08-13 04:02:00,
2013-08-13 00:03:00,64.9,63.7,29.86,WNW,284,0.0,0.0,96,0.00,,,0.00,Wunderground v.1.15,2013-08-13 04:03:00,
2013-08-13 00:04:00,64.9,63.7,29.86,WNW,284,0.0,0.0,96,0.00,,,0.00,Wunderground v.1.15,2013-08-13 04:04:00,
2013-08-13 00:10:00,64.8,63.6,29.87,WNW,284,0.0,0.0,96,0.00,,,0.00,Wunderground v.1.15,2013-08-13 04:10:00,
2013-08-13 00:11:00,64.8,63.6,29.86,WNW,284,0.0,0.0,96,0.00,,,0.00,Wunderground v.1.15,2013-08-13 04:11:00,
2013-08-13 00:16:00,64.6,63.4,29.87,WNW,284,0.0,1.0,96,0.00,,,0.00,Wunderground v.1.15,2013-08-13 04:16:00,
2013-08-13 00:21:00,64.5,63.3,29.86,WNW,284,0.0,1.0,96,0.00,,,0.00,Wunderground v.1.15,2013-08-13 04:21:00,
2013-08-13 00:27:00,64.4,63.2,29.86,WNW,284,0.0,1.0,96,0.00,,,0.00,Wunderground v.1.15,2013-08-13 04:27:00,
2013-08-13 00:33:00,64.3,63.1,29.86,WNW,286,0.0,1.0,96,0.00,,,0.00,Wunderground v.1.15,2013-08-13 04:33:00,
2013-08-13 00:39:00,64.2,63.0,29.86,WNW,287,0.0,3.0,96,0.00,,,0.00,Wunderground v.1.15,2013-08-13 04:39:00,
2013-08-13 00:45:00,64.1,62.6,29.86,WNW,287,0.0,1.0,95,0.00,,,0.00,Wunderground v.1.15,2013-08-13 04:45:00,
2013-08-13 00:50:00,63.9,62.4,29.86,WNW,287,0.0,0.0,95,0.00,,,0.00,Wunderground v.1.15,2013-08-13 04:50:00,
2013-08-13 00:55:00,63.7,62.5,29.86,WNW,288,0.0,3.0,96,0.00,,,0.00,Wunderground v.1.15,2013-08-13 04:55:00,
2013-08-13 01:01:00,63.5,62.0,29.86,WNW,288,0.0,3.0,95,0.00,,,0.00,Wunderground v.1.15,2013-08-13 05:01:00,
2013-08-13 01:07:00,63.3,61.8,29.86,WNW,288,0.0,3.0,95,0.00,,,0.00,Wunderground v.1.15,2013-08-13 05:07:00,
2013-08-13 01:13:00,63.1,61.6,29.86,WNW,288,0.0,0.0,95,0.00,,,0.00,Wunderground v.1.15,2013-08-13 05:13:00,
2013-08-13 01:18:00,62.8,61.3,29.86,WNW,288,0.0,0.0,95,0.00,,,0.00,Wunderground v.1.15,2013-08-13 05:18:00,
2013-08-13 01:24:00,62.6,61.1,29.86,WNW,288,0.0,1.0,95,0.00,,,0.00,Wunderground v.1.15,2013-08-13 05:24:00,
2013-08-13 01:29:00,62.4,60.9,29.86,WNW,288,0.0,0.0,95,0.00,,,0.00,Wunderground v.1.15,2013-08-13 05:29:00,
2013-08-13 01:35:00,62.2,60.8,29.86,WNW,288,0.0,0.0,95,0.00,,,0.00,Wunderground v.1.15,2013-08-13 05:35:00,
2013-08-13 01:41:00,62.0,60.6,29.86,WNW,288,0.0,0.0,95,0.00,,,0.00,Wunderground v.1.15,2013-08-13 05:41:00,
2013-08-13 01:46:00,61.8,60.4,29.86,WNW,288,0.0,0.0,95,0.00,,,0.00,Wunderground v.1.15,2013-08-13 05:46:00,
2013-08-13 01:52:00,61.7,60.3,29.86,WNW,288,0.0,0.0,95,0.00,,,0.00,Wunderground v.1.15,2013-08-13 05:52:00,
2013-08-13 01:57:00,61.5,60.1,29.86,WNW,288,0.0,0.0,95,0.00,,,0.00,Wunderground v.1.15,2013-08-13 05:57:00,
2013-08-13 02:03:00,61.4,60.0,29.86,WNW,288,0.0,0.0,95,0.00,,,0.00,Wunderground v.1.15,2013-08-13 06:03:00,
2013-08-13 02:09:00,61.3,59.9,29.86,WNW,288,0.0,0.0,95,0.00,,,0.00,Wunderground v.1.15,2013-08-13 06:09:00,
2013-08-13 02:15:00,61.3,59.9,29.86,WNW,288,0.0,3.0,95,0.00,,,0.00,Wunderground v.1.15,2013-08-13 06:15:00,
2013-08-13 02:20:00,61.2,59.8,29.86,WNW,299,1.0,3.0,95,0.00,,,0.00,Wunderground v.1.15,2013-08-13 06:20:00,
2013-08-13 02:26:00,61.2,59.8,29.86,NW,315,1.0,4.0,95,0.00,,,0.00,Wunderground v.1.15,2013-08-13 06:26:00,
2013-08-13 02:31:00,61.1,59.7,29.86,NNW,336,2.0,2.0,95,0.00,,,0.00,Wunderground v.1.15,2013-08-13 06:31:00,
2013-08-13 02:37:00,60.8,59.4,29.86,NNW,340,1.0,3.0,95,0.00,,,0.00,Wunderground v.1.15,2013-08-13 06:37:00,
2013-08-13 02:43:00,60.6,59.2,29.86,NNW,345,1.0,1.0,95,0.00,,,0.00,Wunderground v.1.15,2013-08-13 06:43:00,
2013-08-13 02:49:00,60.3,58.9,29.86,NNW,343,1.0,3.0,95,0.00,,,0.00,Wunderground v.1.15,2013-08-13 06:49:00,
2013-08-13 02:55:00,60.2,58.8,29.87,NNW,345,2.0,5.0,95,0.00,,,0.00,Wunderground v.1.15,2013-08-13 06:55:00,
2013-08-13 03:01:00,60.0,58.6,29.87,NNW,347,2.0,2.0,95,0.00,,,0.00,Wunderground v.1.15,2013-08-13 07:01:00,
2013-08-13 03:06:00,60.0,58.6,29.87,NNW,346,1.0,4.0,95,0.00,,,0.00,Wunderground v.1.15,2013-08-13 07:06:00,
2013-08-13 03:12:00,59.8,58.4,29.86,NNW,345,1.0,4.0,95,0.00,,,0.00,Wunderground v.1.15,2013-08-13 07:12:00,
2013-08-13 03:17:00,59.8,58.4,29.86,NNW,347,2.0,5.0,95,0.00,,,0.00,Wunderground v.1.15,2013-08-13 07:17:00,
2013-08-13 03:23:00,59.6,58.2,29.87,NNW,346,3.0,3.0,95,0.00,,,0.00,Wunderground v.1.15,2013-08-13 07:23:00,
2013-08-13 03:28:00,59.5,57.8,29.87,NNW,345,3.0,5.0,94,0.00,,,0.00,Wunderground v.1.15,2013-08-13 07:28:00,
2013-08-13 03:33:00,59.3,57.6,29.86,NNW,345,2.0,4.0,94,0.00,,,0.00,Wunderground v.1.15,2013-08-13 07:33:00,
2013-08-13 03:39:00,59.1,57.4,29.87,NNW,342,1.0,4.0,94,0.00,,,0.00,Wunderground v.1.15,2013-08-13 07:39:00,
2013-08-13 03:44:00,59.0,57.3,29.87,NNW,341,2.0,2.0,94,0.00,,,0.00,Wunderground v.1.15,2013-08-13 07:44:00,
2013-08-13 03:50:00,59.0,57.3,29.87,NNW,343,1.0,1.0,94,0.00,,,0.00,Wunderground v.1.15,2013-08-13 07:50:00,
2013-08-13 03:55:00,59.0,57.3,29.87,NNW,343,1.0,6.0,94,0.00,,,0.00,Wunderground v.1.15,2013-08-13 07:55:00,
2013-08-13 04:01:00,58.9,57.2,29.87,North,349,2.0,6.0,94,0.00,,,0.00,Wunderground v.1.15,2013-08-13 08:01:00,
2013-08-13 04:06:00,58.7,57.0,29.87,North,349,2.0,6.0,94,0.00,,,0.00,Wunderground v.1.15,2013-08-13 08:06:00,
2013-08-13 04:12:00,58.5,56.8,29.87,North,355,1.0,2.0,94,0.00,,,0.00,Wunderground v.1.15,2013-08-13 08:12:00,
2013-08-13 04:17:00,58.4,56.7,29.87,North,355,1.0,4.0,94,0.00,,,0.00,Wunderground v.1.15,2013-08-13 08:17:00,
2013-08-13 04:23:00,58.3,56.6,29.87,North,355,1.0,5.0,94,0.00,,,0.00,Wunderground v.1.15,2013-08-13 08:23:00,
2013-08-13 04:29:00,58.2,56.5,29.88,North,355,1.0,5.0,94,0.00,,,0.00,Wunderground v.1.15,2013-08-13 08:29:00,
2013-08-13 04:34:00,58.1,56.4,29.88,North,355,1.0,4.0,94,0.00,,,0.00,Wunderground v.1.15,2013-08-13 08:34:00,
2013-08-13 04:39:00,58.2,56.5,29.88,North,355,2.0,4.0,94,0.00,,,0.00,Wunderground v.1.15,2013-08-13 08:39:00,
2013-08-13 04:44:00,58.2,56.8,29.88,North,360,2.0,2.0,95,0.00,,,0.00,Wunderground v.1.15,2013-08-13 08:44:00,
2013-08-13 04:50:00,58.3,56.6,29.88,NNE,15,2.0,4.0,94,0.00,,,0.00,Wunderground v.1.15,2013-08-13 08:50:00,
2013-08-13 04:55:00,58.4,57.0,29.88,NNE,14,2.0,4.0,95,0.00,,,0.00,Wunderground v.1.15,2013-08-13 08:55:00,
2013-08-13 05:01:00,58.4,56.7,29.89,North,350,2.0,4.0,94,0.00,,,0.00,Wunderground v.1.15,2013-08-13 09:01:00,
2013-08-13 05:06:00,58.4,56.7,29.89,North,351,3.0,4.0,94,0.00,,,0.00,Wunderground v.1.15,2013-08-13 09:06:00,
2013-08-13 05:11:00,58.4,56.7,29.89,North,355,2.0,3.0,94,0.00,,,0.00,Wunderground v.1.15,2013-08-13 09:11:00,
2013-08-13 05:16:00,58.3,56.6,29.90,NNW,348,2.0,4.0,94,0.00,,,0.00,Wunderground v.1.15,2013-08-13 09:16:00,
2013-08-13 05:22:00,58.2,56.5,29.90,North,355,3.0,5.0,94,0.00,,,0.00,Wunderground v.1.15,2013-08-13 09:22:00,
2013-08-13 05:27:00,58.1,56.4,29.90,North,5,3.0,5.0,94,0.00,,,0.00,Wunderground v.1.15,2013-08-13 09:27:00,
2013-08-13 05:33:00,58.0,56.3,29.90,North,355,2.0,5.0,94,0.00,,,0.00,Wunderground v.1.15,2013-08-13 09:33:00,
2013-08-13 05:39:00,57.9,56.2,29.90,North,355,2.0,5.0,94,0.00,,,0.00,Wunderground v.1.15,2013-08-13 09:39:00,
2013-08-13 05:44:00,57.9,56.2,29.90,North,355,1.0,3.0,94,0.00,,,0.00,Wunderground v.1.15,2013-08-13 09:44:00,
2013-08-13 05:50:00,57.7,56.0,29.90,North,355,1.0,2.0,94,0.00,,,0.00,Wunderground v.1.15,2013-08-13 09:50:00,
2013-08-13 05:56:00,57.5,55.8,29.90,North,355,2.0,3.0,94,0.00,,,0.00,Wunderground v.1.15,2013-08-13 09:56:00,
2013-08-13 06:01:00,57.5,55.8,29.91,North,355,2.0,3.0,94,0.00,,,0.00,Wunderground v.1.15,2013-08-13 10:01:00,
2013-08-13 06:06:00,57.4,55.7,29.91,NNW,348,2.0,5.0,94,0.00,,,0.00,Wunderground v.1.15,2013-08-13 10:06:00,
2013-08-13 06:12:00,57.3,55.6,29.91,North,349,2.0,4.0,94,0.00,,,0.00,Wunderground v.1.15,2013-08-13 10:12:00,
2013-08-13 06:17:00,57.2,55.5,29.92,NNW,348,2.0,6.0,94,0.00,,,0.00,Wunderground v.1.15,2013-08-13 10:17:00,
2013-08-13 06:23:00,57.2,55.5,29.92,NNW,348,2.0,3.0,94,0.00,,,0.00,Wunderground v.1.15,2013-08-13 10:23:00,
2013-08-13 06:29:00,57.1,55.4,29.93,NNE,24,1.0,4.0,94,0.00,,,0.00,Wunderground v.1.15,2013-08-13 10:29:00,
2013-08-13 06:35:00,56.1,53.8,29.93,North,349,3.0,10.0,92,0.00,,,0.00,Wunderground v.1.15,2013-08-13 10:35:00,
2013-08-13 06:41:00,55.6,53.0,29.93,NNE,21,4.0,4.0,91,0.00,,,0.00,Wunderground v.1.15,2013-08-13 10:41:00,
2013-08-13 06:47:00,55.1,52.5,29.93,NNW,345,3.0,5.0,91,0.00,,,0.00,Wunderground v.1.15,2013-08-13 10:47:00,
2013-08-13 06:52:00,54.8,52.2,29.93,NNW,338,3.0,4.0,91,0.00,,,0.00,Wunderground v.1.15,2013-08-13 10:52:00,
2013-08-13 06:57:00,54.5,51.9,29.93,NNW,344,2.0,4.0,91,0.00,,,0.00,Wunderground v.1.15,2013-08-13 10:57:00,
2013-08-13 07:02:00,54.3,51.7,29.94,NNE,15,1.0,3.0,91,0.00,,,0.00,Wunderground v.1.15,2013-08-13 11:02:00,
2013-08-13 07:08:00,54.1,51.5,29.94,NNE,22,2.0,6.0,91,0.00,,,0.00,Wunderground v.1.15,2013-08-13 11:08:00,
2013-08-13 07:16:00,53.9,51.3,29.94,NNE,25,2.0,4.0,91,0.00,,,0.00,Wunderground v.1.15,2013-08-13 11:16:00,
2013-08-13 07:21:00,54.0,51.7,29.94,NNE,17,2.0,2.0,92,0.00,,,0.00,Wunderground v.1.15,2013-08-13 11:21:00,
2013-08-13 07:26:00,54.1,51.8,29.95,North,355,2.0,5.0,92,0.00,,,0.00,Wunderground v.1.15,2013-08-13 11:26:00,
2013-08-13 07:31:00,54.2,51.9,29.95,NNE,22,2.0,2.0,92,0.00,,,0.00,Wunderground v.1.15,2013-08-13 11:31:00,
2013-08-13 07:37:00,54.2,51.9,29.95,North,355,1.0,5.0,92,0.00,,,0.00,Wunderground v.1.15,2013-08-13 11:37:00,
2013-08-13 07:44:00,54.2,51.9,29.95,North,355,3.0,4.0,92,0.00,,,0.00,Wunderground v.1.15,2013-08-13 11:44:00,
2013-08-13 07:50:00,54.3,52.0,29.95,NNE,14,3.0,3.0,92,0.00,,,0.00,Wunderground v.1.15,2013-08-13 11:50:00,
2013-08-13 07:55:00,54.4,52.1,29.95,North,360,2.0,6.0,92,0.00,,,0.00,Wunderground v.1.15,2013-08-13 11:55:00,
2013-08-13 08:00:00,54.4,51.8,29.95,North,360,2.0,2.0,91,0.00,,,0.00,Wunderground v.1.15,2013-08-13 12:00:00,
2013-08-13 08:05:00,54.4,51.8,29.96,NE,38,3.0,7.0,91,0.00,,,0.00,Wunderground v.1.15,2013-08-13 12:05:00,
2013-08-13 08:11:00,54.4,51.5,29.95,NNE,13,4.0,5.0,90,0.00,,,0.00,Wunderground v.1.15,2013-08-13 12:11:00,
2013-08-13 08:17:00,54.5,51.3,29.96,North,349,4.0,5.0,89,0.00,,,0.00,Wunderground v.1.15,2013-08-13 12:17:00,
2013-08-13 08:23:00,54.4,50.9,29.96,NNW,343,4.0,5.0,88,0.00,,,0.00,Wunderground v.1.15,2013-08-13 12:23:00,
2013-08-13 08:29:00,54.4,50.6,29.96,NE,46,5.0,10.0,87,0.00,,,0.00,Wunderground v.1.15,2013-08-13 12:29:00,
2013-08-13 08:35:00,54.5,50.7,29.97,NNW,340,6.0,6.0,87,0.00,,,0.00,Wunderground v.1.15,2013-08-13 12:35:00,
2013-08-13 08:41:00,54.5,51.0,29.97,NNE,17,5.0,5.0,88,0.00,,,0.00,Wunderground v.1.15,2013-08-13 12:41:00,
2013-08-13 08:47:00,54.6,51.1,29.97,NE,34,4.0,9.0,88,0.00,,,0.00,Wunderground v.1.15,2013-08-13 12:47:00,
2013-08-13 08:52:00,54.7,50.9,29.97,NNE,19,4.0,5.0,87,0.00,,,0.00,Wunderground v.1.15,2013-08-13 12:52:00,
2013-08-13 08:57:00,54.9,51.4,29.97,NNW,344,4.0,6.0,88,0.00,,,0.00,Wunderground v.1.15,2013-08-13 12:57:00,
2013-08-13 09:04:00,55.2,51.1,29.97,NNW,348,3.0,9.0,86,0.00,,,0.00,Wunderground v.1.15,2013-08-13 13:04:00,
2013-08-13 09:09:00,55.5,51.4,29.97,North,355,4.0,9.0,86,0.00,,,0.00,Wunderground v.1.15,2013-08-13 13:09:00,
2013-08-13 09:15:00,55.6,51.2,29.97,North,360,6.0,9.0,85,0.00,,,0.00,Wunderground v.1.15,2013-08-13 13:15:00,
2013-08-13 09:21:00,55.9,51.1,29.98,NE,46,5.0,11.0,84,0.00,,,0.00,Wunderground v.1.15,2013-08-13 13:21:00,
2013-08-13 09:26:00,56.1,51.3,29.98,NNE,33,5.0,11.0,84,0.00,,,0.00,Wunderground v.1.15,2013-08-13 13:26:00,
2013-08-13 09:31:00,56.3,51.5,29.98,NNW,337,6.0,11.0,84,0.00,,,0.00,Wunderground v.1.15,2013-08-13 13:31:00,
2013-08-13 09:36:00,56.4,51.3,29.98,NE,35,6.0,11.0,83,0.00,,,0.00,Wunderground v.1.15,2013-08-13 13:36:00,
2013-08-13 09:41:00,56.8,51.4,29.98,NNW,344,5.0,7.0,82,0.00,,,0.00,Wunderground v.1.15,2013-08-13 13:41:00,
2013-08-13 09:47:00,57.0,51.6,29.98,North,355,4.0,11.0,82,0.00,,,0.00,Wunderground v.1.15,2013-08-13 13:47:00,
2013-08-13 09:53:00,57.1,51.3,29.98,North,349,5.0,5.0,81,0.00,,,0.00,Wunderground v.1.15,2013-08-13 13:53:00,
2013-08-13 09:58:00,57.2,51.1,29.99,NE,38,5.0,9.0,80,0.00,,,0.00,Wunderground v.1.15,2013-08-13 13:58:00,
2013-08-13 10:06:00,57.6,51.8,29.99,NNE,20,4.0,5.0,81,0.00,,,0.00,Wunderground v.1.15,2013-08-13 14:06:00,
2013-08-13 10:11:00,57.8,51.3,29.99,NW,315,4.0,10.0,79,0.00,,,0.00,Wunderground v.1.15,2013-08-13 14:11:00,
2013-08-13 10:17:00,57.7,50.9,29.99,NE,42,6.0,12.0,78,0.00,,,0.00,Wunderground v.1.15,2013-08-13 14:17:00,
2013-08-13 10:22:00,57.7,51.2,30.00,NNW,330,6.0,7.0,79,0.00,,,0.00,Wunderground v.1.15,2013-08-13 14:22:00,
2013-08-13 10:28:00,57.8,51.0,30.00,NNW,342,5.0,7.0,78,0.00,,,0.00,Wunderground v.1.15,2013-08-13 14:28:00,
2013-08-13 10:34:00,57.6,50.8,30.00,NE,34,5.0,5.0,78,0.00,,,0.00,Wunderground v.1.15,2013-08-13 14:34:00,
2013-08-13 10:39:00,57.9,51.1,30.00,NE,44,5.0,8.0,78,0.00,,,0.00,Wunderground v.1.15,2013-08-13 14:39:00,
2013-08-13 10:44:00,57.9,51.1,30.00,North,360,5.0,11.0,78,0.00,,,0.00,Wunderground v.1.15,2013-08-13 14:44:00,
2013-08-13 10:50:00,57.7,50.5,29.99,North,355,5.0,5.0,77,0.00,,,0.00,Wunderground v.1.15,2013-08-13 14:50:00,
2013-08-13 10:55:00,57.8,50.3,29.99,North,5,6.0,13.0,76,0.00,,,0.00,Wunderground v.1.15,2013-08-13 14:55:00,
2013-08-13 11:01:00,57.7,50.5,30.00,NNW,348,6.0,6.0,77,0.00,,,0.00,Wunderground v.1.15,2013-08-13 15:01:00,
2013-08-13 11:07:00,58.1,50.9,30.00,North,355,6.0,7.0,77,0.00,,,0.00,Wunderground v.1.15,2013-08-13 15:07:00,
2013-08-13 11:12:00,58.8,50.9,30.00,NNW,336,7.0,17.0,75,0.00,,,0.00,Wunderground v.1.15,2013-08-13 15:12:00,
2013-08-13 11:18:00,59.0,51.4,30.00,NNE,19,6.0,17.0,76,0.00,,,0.00,Wunderground v.1.15,2013-08-13 15:18:00,
2013-08-13 11:23:00,59.8,52.6,30.00,North,5,4.0,9.0,77,0.00,,,0.00,Wunderground v.1.15,2013-08-13 15:23:00,
2013-08-13 11:29:00,59.9,50.5,30.00,NE,45,5.0,13.0,71,0.00,,,0.00,Wunderground v.1.15,2013-08-13 15:29:00,
2013-08-13 11:34:00,59.4,50.7,30.00,NNE,22,6.0,6.0,73,0.00,,,0.00,Wunderground v.1.15,2013-08-13 15:34:00,
2013-08-13 11:40:00,59.4,51.5,30.01,North,360,5.0,7.0,75,0.00,,,0.00,Wunderground v.1.15,2013-08-13 15:40:00,
2013-08-13 11:45:00,59.6,51.3,30.01,North,360,6.0,7.0,74,0.00,,,0.00,Wunderground v.1.15,2013-08-13 15:45:00,
2013-08-13 11:50:00,59.9,50.8,30.01,NE,53,6.0,6.0,72,0.00,,,0.00,Wunderground v.1.15,2013-08-13 15:50:00,
2013-08-13 11:55:00,60.7,51.2,30.01,NNW,335,6.0,10.0,71,0.00,,,0.00,Wunderground v.1.15,2013-08-13 15:55:00,
2013-08-13 12:01:00,60.6,51.9,30.01,North,355,5.0,5.0,73,0.00,,,0.00,Wunderground v.1.15,2013-08-13 16:01:00,
2013-08-13 12:06:00,59.7,51.4,30.01,NNW,344,5.0,12.0,74,0.00,,,0.00,Wunderground v.1.15,2013-08-13 16:06:00,
2013-08-13 12:11:00,59.7,50.3,30.01,NE,46,6.0,9.0,71,0.00,,,0.00,Wunderground v.1.15,2013-08-13 16:11:00,
2013-08-13 12:16:00,59.6,49.8,30.01,NNE,25,6.0,11.0,70,0.00,,,0.00,Wunderground v.1.15,2013-08-13 16:16:00,
2013-08-13 12:22:00,60.4,51.3,30.01,NNW,331,5.0,11.0,72,0.00,,,0.00,Wunderground v.1.15,2013-08-13 16:22:00,
2013-08-13 12:28:00,60.7,51.2,30.01,NE,46,5.0,11.0,71,0.00,,,0.00,Wunderground v.1.15,2013-08-13 16:28:00,
2013-08-13 12:33:00,61.1,52.0,30.00,North,360,6.0,13.0,72,0.00,,,0.00,Wunderground v.1.15,2013-08-13 16:33:00,
2013-08-13 12:39:00,61.2,50.9,30.01,NNW,337,7.0,7.0,69,0.00,,,0.00,Wunderground v.1.15,2013-08-13 16:39:00,
2013-08-13 12:45:00,61.9,50.8,30.01,ENE,59,5.0,7.0,67,0.00,,,0.00,Wunderground v.1.15,2013-08-13 16:45:00,
2013-08-13 12:50:00,61.5,50.0,30.01,NNW,334,5.0,5.0,66,0.00,,,0.00,Wunderground v.1.15,2013-08-13 16:50:00,
2013-08-13 12:55:00,61.6,50.1,30.01,North,355,5.0,7.0,66,0.00,,,0.00,Wunderground v.1.15,2013-08-13 16:55:00,
2013-08-13 13:01:00,61.1,49.2,30.01,NNE,30,5.0,15.0,65,0.00,,,0.00,Wunderground v.1.15,2013-08-13 17:01:00,
2013-08-13 13:06:00,60.8,51.0,30.01,North,350,5.0,15.0,70,0.00,,,0.00,Wunderground v.1.15,2013-08-13 17:06:00,
2013-08-13 13:12:00,61.6,51.3,30.01,NNE,25,5.0,10.0,69,0.00,,,0.00,Wunderground v.1.15,2013-08-13 17:12:00,
2013-08-13 13:17:00,62.1,50.2,30.01,NNW,331,6.0,10.0,65,0.00,,,0.00,Wunderground v.1.15,2013-08-13 17:17:00,
2013-08-13 13:24:00,62.1,49.8,30.01,NNE,21,6.0,17.0,64,0.00,,,0.00,Wunderground v.1.15,2013-08-13 17:24:00,
2013-08-13 13:29:00,61.8,49.1,30.01,North,9,7.0,17.0,63,0.00,,,0.00,Wunderground v.1.15,2013-08-13 17:29:00,
2013-08-13 13:34:00,61.6,50.1,30.01,North,9,6.0,8.0,66,0.00,,,0.00,Wunderground v.1.15,2013-08-13 17:34:00,
2013-08-13 13:40:00,61.8,49.1,30.01,NNE,15,5.0,10.0,63,0.00,,,0.00,Wunderground v.1.15,2013-08-13 17:40:00,
2013-08-13 13:45:00,61.7,50.2,30.02,NNW,338,6.0,10.0,66,0.00,,,0.00,Wunderground v.1.15,2013-08-13 17:45:00,
2013-08-13 13:51:00,61.9,52.0,30.02,North,9,5.0,6.0,70,0.00,,,0.00,Wunderground v.1.15,2013-08-13 17:51:00,
2013-08-13 13:57:00,62.4,51.7,30.02,NE,36,5.0,10.0,68,0.00,,,0.00,Wunderground v.1.15,2013-08-13 17:57:00,
2013-08-13 14:02:00,62.8,50.4,30.02,NNW,348,5.0,10.0,64,0.00,,,0.00,Wunderground v.1.15,2013-08-13 18:02:00,
2013-08-13 14:07:00,62.5,50.2,30.02,NNE,19,5.0,10.0,64,0.00,,,0.00,Wunderground v.1.15,2013-08-13 18:07:00,
2013-08-13 14:14:00,62.5,49.7,30.02,NE,40,5.0,5.0,63,0.00,,,0.00,Wunderground v.1.15,2013-08-13 18:14:00,
2013-08-13 14:19:00,62.4,50.5,30.02,NE,41,4.0,9.0,65,0.00,,,0.00,Wunderground v.1.15,2013-08-13 18:19:00,
2013-08-13 14:25:00,62.1,48.9,30.02,NNE,19,5.0,6.0,62,0.00,,,0.00,Wunderground v.1.15,2013-08-13 18:25:00,
2013-08-13 14:31:00,62.4,50.5,30.02,NNW,334,6.0,10.0,65,0.00,,,0.00,Wunderground v.1.15,2013-08-13 18:31:00,
2013-08-13 14:36:00,62.7,49.9,30.02,ENE,68,6.0,10.0,63,0.00,,,0.00,Wunderground v.1.15,2013-08-13 18:36:00,
2013-08-13 14:42:00,62.6,49.0,30.01,NE,43,5.0,8.0,61,0.00,,,0.00,Wunderground v.1.15,2013-08-13 18:42:00,
2013-08-13 14:48:00,62.3,49.1,30.01,North,360,5.0,8.0,62,0.00,,,0.00,Wunderground v.1.15,2013-08-13 18:48:00,
2013-08-13 14:55:00,62.7,50.3,30.01,NW,326,3.0,6.0,64,0.00,,,0.00,Wunderground v.1.15,2013-08-13 18:55:00,
2013-08-13 15:01:00,63.0,50.2,30.01,NNE,22,4.0,4.0,63,0.00,,,0.00,Wunderground v.1.15,2013-08-13 19:01:00,
2013-08-13 15:06:00,62.7,49.1,30.01,North,350,4.0,6.0,61,0.00,,,0.00,Wunderground v.1.15,2013-08-13 19:06:00,
2013-08-13 15:12:00,63.0,50.6,30.01,NNW,346,3.0,4.0,64,0.00,,,0.00,Wunderground v.1.15,2013-08-13 19:12:00,
2013-08-13 15:18:00,63.3,49.6,30.01,North,360,3.0,4.0,61,0.00,,,0.00,Wunderground v.1.15,2013-08-13 19:18:00,
2013-08-13 15:24:00,63.4,51.0,30.02,NE,38,4.0,10.0,64,0.00,,,0.00,Wunderground v.1.15,2013-08-13 19:24:00,
2013-08-13 15:29:00,63.8,50.1,30.01,NNW,342,5.0,5.0,61,0.00,,,0.00,Wunderground v.1.15,2013-08-13 19:29:00,
2013-08-13 15:35:00,63.8,50.1,30.01,WNW,292,4.0,5.0,61,0.00,,,0.00,Wunderground v.1.15,2013-08-13 19:35:00,
2013-08-13 15:40:00,63.9,50.2,30.02,NE,38,3.0,5.0,61,0.00,,,0.00,Wunderground v.1.15,2013-08-13 19:40:00,
2013-08-13 15:46:00,64.3,50.6,30.01,WNW,294,4.0,5.0,61,0.00,,,0.00,Wunderground v.1.15,2013-08-13 19:46:00,
2013-08-13 15:52:00,64.5,51.6,30.01,North,349,3.0,4.0,63,0.00,,,0.00,Wunderground v.1.15,2013-08-13 19:52:00,
2013-08-13 15:58:00,64.8,51.0,30.01,NNE,30,3.0,7.0,61,0.00,,,0.00,Wunderground v.1.15,2013-08-13 19:58:00,
2013-08-13 16:06:00,65.0,51.7,30.00,NNE,18,4.0,4.0,62,0.00,,,0.00,Wunderground v.1.15,2013-08-13 20:06:00,
2013-08-13 16:11:00,65.6,51.8,30.00,NNW,338,3.0,3.0,61,0.00,,,0.00,Wunderground v.1.15,2013-08-13 20:11:00,
2013-08-13 16:16:00,66.0,51.3,30.00,NNW,336,3.0,5.0,59,0.00,,,0.00,Wunderground v.1.15,2013-08-13 20:16:00,
2013-08-13 16:21:00,66.5,50.3,30.00,NNE,30,4.0,4.0,56,0.00,,,0.00,Wunderground v.1.15,2013-08-13 20:21:00,
2013-08-13 16:27:00,66.4,50.7,30.00,NNW,340,5.0,7.0,57,0.00,,,0.00,Wunderground v.1.15,2013-08-13 20:27:00,
2013-08-13 16:32:00,66.5,51.7,30.00,NNE,21,5.0,11.0,59,0.00,,,0.00,Wunderground v.1.15,2013-08-13 20:32:00,
2013-08-13 16:37:00,66.5,50.8,30.00,North,360,4.0,11.0,57,0.00,,,0.00,Wunderground v.1.15,2013-08-13 20:37:00,
2013-08-13 16:42:00,65.9,51.2,30.00,NNW,330,4.0,4.0,59,0.00,,,0.00,Wunderground v.1.15,2013-08-13 20:42:00,
2013-08-13 16:55:00,66.6,49.4,30.00,North,5,5.0,5.0,54,0.00,,,0.00,Wunderground v.1.15,2013-08-13 20:55:00,
2013-08-13 17:01:00,66.9,50.7,30.00,NW,307,5.0,8.0,56,0.00,,,0.00,Wunderground v.1.15,2013-08-13 21:01:00,
2013-08-13 17:06:00,67.1,48.4,30.00,North,355,6.0,12.0,51,0.00,,,0.00,Wunderground v.1.15,2013-08-13 21:06:00,
2013-08-13 17:11:00,67.0,49.3,30.00,North,355,6.0,10.0,53,0.00,,,0.00,Wunderground v.1.15,2013-08-13 21:11:00,
2013-08-13 17:16:00,66.8,49.1,30.00,NW,305,6.0,10.0,53,0.00,,,0.00,Wunderground v.1.15,2013-08-13 21:16:00,
2013-08-13 17:22:00,66.0,48.4,30.00,WNW,288,6.0,7.0,53,0.00,,,0.00,Wunderground v.1.15,2013-08-13 21:22:00,
2013-08-13 17:28:00,66.1,49.5,30.00,WNW,284,4.0,7.0,55,0.00,,,0.00,Wunderground v.1.15,2013-08-13 21:28:00,
2013-08-13 17:35:00,65.4,48.3,30.00,North,5,5.0,15.0,54,0.00,,,0.00,Wunderground v.1.15,2013-08-13 21:35:00,
2013-08-13 17:40:00,64.5,48.0,30.00,North,9,6.0,6.0,55,0.00,,,0.00,Wunderground v.1.15,2013-08-13 21:40:00,
2013-08-13 17:45:00,64.0,48.5,30.00,NNW,335,5.0,6.0,57,0.00,,,0.00,Wunderground v.1.15,2013-08-13 21:45:00,
2013-08-13 17:51:00,64.1,49.5,30.00,North,350,5.0,6.0,59,0.00,,,0.00,Wunderground v.1.15,2013-08-13 21:51:00,
2013-08-13 17:56:00,64.9,49.8,30.00,NNW,344,4.0,6.0,58,0.00,,,0.00,Wunderground v.1.15,2013-08-13 21:56:00,
2013-08-13 18:01:00,65.9,50.7,30.00,NNW,348,4.0,4.0,58,0.00,,,0.00,Wunderground v.1.15,2013-08-13 22:01:00,
2013-08-13 18:08:00,66.6,50.4,30.00,North,360,4.0,4.0,56,0.00,,,0.00,Wunderground v.1.15,2013-08-13 22:08:00,
2013-08-13 18:13:00,66.3,48.7,30.00,NW,322,6.0,12.0,53,0.00,,,0.00,Wunderground v.1.15,2013-08-13 22:13:00,
2013-08-13 18:18:00,65.5,49.9,30.00,NW,305,6.0,12.0,57,0.00,,,0.00,Wunderground v.1.15,2013-08-13 22:18:00,
2013-08-13 18:23:00,65.7,49.6,30.00,NNW,333,5.0,7.0,56,0.00,,,0.00,Wunderground v.1.15,2013-08-13 22:23:00,
2013-08-13 18:29:00,66.3,50.1,30.00,NE,34,4.0,4.0,56,0.00,,,0.00,Wunderground v.1.15,2013-08-13 22:29:00,
2013-08-13 18:34:00,66.3,49.6,30.01,North,360,5.0,11.0,55,0.00,,,0.00,Wunderground v.1.15,2013-08-13 22:34:00,
2013-08-13 18:39:00,65.8,49.7,30.01,NE,42,5.0,11.0,56,0.00,,,0.00,Wunderground v.1.15,2013-08-13 22:39:00,
2013-08-13 18:44:00,65.4,48.3,30.01,NNE,21,6.0,7.0,54,0.00,,,0.00,Wunderground v.1.15,2013-08-13 22:44:00,
2013-08-13 18:50:00,64.4,48.4,30.01,NNE,30,5.0,5.0,56,0.00,,,0.00,Wunderground v.1.15,2013-08-13 22:50:00,
2013-08-13 18:55:00,63.9,48.4,30.01,NE,51,4.0,9.0,57,0.00,,,0.00,Wunderground v.1.15,2013-08-13 22:55:00,
2013-08-13 19:01:00,63.9,47.9,30.01,North,360,4.0,4.0,56,0.00,,,0.00,Wunderground v.1.15,2013-08-13 23:01:00,
2013-08-13 19:07:00,63.7,48.2,30.01,NNE,24,4.0,8.0,57,0.00,,,0.00,Wunderground v.1.15,2013-08-13 23:07:00,
2013-08-13 19:12:00,63.5,46.6,30.02,NNW,338,6.0,10.0,54,0.00,,,0.00,Wunderground v.1.15,2013-08-13 23:12:00,
2013-08-13 19:17:00,63.3,46.9,30.01,NNE,25,6.0,10.0,55,0.00,,,0.00,Wunderground v.1.15,2013-08-13 23:17:00,
2013-08-13 19:24:00,63.1,46.7,30.02,North,350,4.0,9.0,55,0.00,,,0.00,Wunderground v.1.15,2013-08-13 23:24:00,
2013-08-13 19:29:00,62.9,47.4,30.02,NE,37,5.0,12.0,57,0.00,,,0.00,Wunderground v.1.15,2013-08-13 23:29:00,
2013-08-13 19:35:00,62.7,47.2,30.02,NNW,344,5.0,9.0,57,0.00,,,0.00,Wunderground v.1.15,2013-08-13 23:35:00,
2013-08-13 19:40:00,62.4,47.0,30.02,NNE,33,5.0,5.0,57,0.00,,,0.00,Wunderground v.1.15,2013-08-13 23:40:00,
2013-08-13 19:46:00,62.2,46.8,30.03,North,9,5.0,5.0,57,0.00,,,0.00,Wunderground v.1.15,2013-08-13 23:46:00,
2013-08-13 19:51:00,61.9,47.0,30.03,North,355,3.0,4.0,58,0.00,,,0.00,Wunderground v.1.15,2013-08-13 23:51:00,
2013-08-13 19:56:00,61.6,47.1,30.03,North,360,3.0,4.0,59,0.00,,,0.00,Wunderground v.1.15,2013-08-13 23:56:00,
2013-08-13 20:02:00,61.3,47.3,30.03,North,5,2.0,3.0,60,0.00,,,0.00,Wunderground v.1.15,2013-08-14 00:02:00,
2013-08-13 20:07:00,60.9,46.9,30.03,North,355,1.0,5.0,60,0.00,,,0.00,Wunderground v.1.15,2013-08-14 00:07:00,
2013-08-13 20:13:00,60.6,47.1,30.03,North,5,1.0,4.0,61,0.00,,,0.00,Wunderground v.1.15,2013-08-14 00:13:00,
2013-08-13 20:18:00,60.3,47.2,30.03,North,355,1.0,4.0,62,0.00,,,0.00,Wunderground v.1.15,2013-08-14 00:18:00,
2013-08-13 20:24:00,59.9,47.3,30.03,North,5,1.0,2.0,63,0.00,,,0.00,Wunderground v.1.15,2013-08-14 00:24:00,
2013-08-13 20:29:00,59.6,47.0,30.03,North,5,2.0,3.0,63,0.00,,,0.00,Wunderground v.1.15,2013-08-14 00:29:00,
2013-08-13 20:35:00,59.3,46.7,30.03,NNW,345,3.0,8.0,63,0.00,,,0.00,Wunderground v.1.15,2013-08-14 00:35:00,
2013-08-13 20:41:00,59.0,46.8,30.03,North,351,2.0,3.0,64,0.00,,,0.00,Wunderground v.1.15,2013-08-14 00:41:00,
2013-08-13 20:46:00,59.0,47.2,30.03,North,355,2.0,3.0,65,0.00,,,0.00,Wunderground v.1.15,2013-08-14 00:46:00,
2013-08-13 20:52:00,58.6,47.3,30.03,North,355,2.0,3.0,66,0.00,,,0.00,Wunderground v.1.15,2013-08-14 00:52:00,
2013-08-13 20:57:00,58.2,46.9,30.03,North,5,1.0,3.0,66,0.00,,,0.00,Wunderground v.1.15,2013-08-14 00:57:00,
2013-08-13 21:03:00,58.0,47.1,30.03,NE,34,2.0,2.0,67,0.00,,,0.00,Wunderground v.1.15,2013-08-14 01:03:00,
2013-08-13 21:10:00,57.6,47.1,30.04,NNE,31,1.0,4.0,68,0.00,,,0.00,Wunderground v.1.15,2013-08-14 01:10:00,
2013-08-13 21:15:00,57.4,46.9,30.04,NNW,346,2.0,5.0,68,0.00,,,0.00,Wunderground v.1.15,2013-08-14 01:15:00,
2013-08-13 21:21:00,57.2,47.1,30.04,North,350,2.0,2.0,69,0.00,,,0.00,Wunderground v.1.15,2013-08-14 01:21:00,
2013-08-13 21:26:00,57.0,47.3,30.05,North,349,1.0,2.0,70,0.00,,,0.00,Wunderground v.1.15,2013-08-14 01:26:00,
2013-08-13 21:31:00,56.7,47.0,30.05,North,350,0.0,1.0,70,0.00,,,0.00,Wunderground v.1.15,2013-08-14 01:31:00,
2013-08-13 21:37:00,56.5,47.2,30.05,North,350,1.0,4.0,71,0.00,,,0.00,Wunderground v.1.15,2013-08-14 01:37:00,
2013-08-13 21:43:00,56.3,47.4,30.05,North,355,1.0,9.0,72,0.00,,,0.00,Wunderground v.1.15,2013-08-14 01:43:00,
2013-08-13 21:48:00,56.2,46.9,30.06,North,355,2.0,9.0,71,0.00,,,0.00,Wunderground v.1.15,2013-08-14 01:48:00,
2013-08-13 21:53:00,56.1,46.8,30.06,NNW,345,3.0,3.0,71,0.00,,,0.00,Wunderground v.1.15,2013-08-14 01:53:00,
2013-08-13 21:59:00,56.0,46.7,30.06,North,355,3.0,6.0,71,0.00,,,0.00,Wunderground v.1.15,2013-08-14 01:59:00,
2013-08-13 22:04:00,55.8,46.5,30.06,North,9,2.0,5.0,71,0.00,,,0.00,Wunderground v.1.15,2013-08-14 02:04:00,
2013-08-13 22:10:00,55.6,46.7,30.06,North,5,1.0,5.0,72,0.00,,,0.00,Wunderground v.1.15,2013-08-14 02:10:00,
2013-08-13 22:15:00,55.3,46.4,30.07,NNW,336,1.0,2.0,72,0.00,,,0.00,Wunderground v.1.15,2013-08-14 02:15:00,
2013-08-13 22:21:00,55.1,46.6,30.07,NNW,336,1.0,1.0,73,0.00,,,0.00,Wunderground v.1.15,2013-08-14 02:21:00,
2013-08-13 22:26:00,54.8,46.3,30.07,NNW,345,1.0,2.0,73,0.00,,,0.00,Wunderground v.1.15,2013-08-14 02:26:00,
2013-08-13 22:32:00,54.6,46.5,30.07,NNW,346,1.0,1.0,74,0.00,,,0.00,Wunderground v.1.15,2013-08-14 02:32:00,
2013-08-13 22:37:00,54.3,46.2,30.07,NNW,346,0.0,1.0,74,0.00,,,0.00,Wunderground v.1.15,2013-08-14 02:37:00,
2013-08-13 22:43:00,54.1,46.3,30.07,North,349,0.0,0.0,75,0.00,,,0.00,Wunderground v.1.15,2013-08-14 02:43:00,
2013-08-13 22:48:00,53.9,46.5,30.07,North,349,1.0,5.0,76,0.00,,,0.00,Wunderground v.1.15,2013-08-14 02:48:00,
2013-08-13 22:54:00,53.8,46.4,30.07,North,350,1.0,3.0,76,0.00,,,0.00,Wunderground v.1.15,2013-08-14 02:54:00,
2013-08-13 22:59:00,53.7,46.3,30.07,North,350,0.0,3.0,76,0.00,,,0.00,Wunderground v.1.15,2013-08-14 02:59:00,
2013-08-13 23:05:00,53.5,46.1,30.07,North,350,0.0,1.0,76,0.00,,,0.00,Wunderground v.1.15,2013-08-14 03:05:00,
2013-08-13 23:10:00,53.3,46.3,30.07,North,350,0.0,0.0,77,0.00,,,0.00,Wunderground v.1.15,2013-08-14 03:10:00,
2013-08-13 23:15:00,53.2,46.2,30.07,North,350,0.0,1.0,77,0.00,,,0.00,Wunderground v.1.15,2013-08-14 03:15:00,
2013-08-13 23:21:00,53.0,46.7,30.07,North,351,0.0,0.0,79,0.00,,,0.00,Wunderground v.1.15,2013-08-14 03:21:00,
2013-08-13 23:26:00,53.0,46.7,30.07,North,350,0.0,2.0,79,0.00,,,0.00,Wunderground v.1.15,2013-08-14 03:26:00,
2013-08-13 23:32:00,53.1,46.8,30.07,North,351,1.0,2.0,79,0.00,,,0.00,Wunderground v.1.15,2013-08-14 03:32:00,
2013-08-13 23:37:00,53.2,46.9,30.07,North,350,1.0,2.0,79,0.00,,,0.00,Wunderground v.1.15,2013-08-14 03:37:00,
2013-08-13 23:43:00,53.1,46.8,30.07,North,350,0.0,0.0,79,0.00,,,0.00,Wunderground v.1.15,2013-08-14 03:43:00,
2013-08-13 23:49:00,52.9,46.6,30.07,North,350,0.0,2.0,79,0.00,,,0.00,Wunderground v.1.15,2013-08-14 03:49:00,
2013-08-13 23:54:00,52.7,46.7,30.07,North,350,0.0,0.0,80,0.00,,,0.00,Wunderground v.1.15,2013-08-14 03:54:00,